Location: Amsterdam
(30.7274°N, 84.4357°W)
Time: 12:09:24
(UTC+00:00)

Tiros 1 - Pass Details

Date: 21 February 2026
Orbit: 618 x 650 km, 48.4° (Epoch: 16 March)

Event Time Altitude Azimuth Distance (km) Brightness Sun altitude
Rises 19:23:04 0° 312° (NW) 2,886 10.4 43.4°
Reaches altitude 10° 19:25:23 10° 313° (NW) 1,977 9.7 43.1°
Maximum altitude 19:29:56 81° 40° (NE) 626 7.7 42.6°
Drops below altitude 10° 19:34:28 10° 129° (SE) 1,970 9.8 42.0°
Sets 19:36:46 0° 130° (SE) 2,875 10.5 41.8°
